GW3329 Weather Reports


time (UTC)temp
F
wind
direction
speed
knots
gust
knots
rain 1hr
in
rain 24hr
in
rain mn
in
humidity
%
barometer
mb
20260905091513 59 158 0.0 0.0 0.00 0.00 0.00 98 1017.1
20260905091008 59 188 0.0 0.0 0.00 0.00 0.00 98 1017.4
20260905090502 59 145 0.0 0.0 0.00 0.00 0.00 98 1017.3
20260905090002 60 145 0.0 0.0 0.00 0.00 0.00 98 1017.3
20260905085501 60 145 0.0 0.0 0.00 0.00 0.00 98 1017.3
20260905084957 60 145 0.0 0.0 0.00 0.00 0.00 98 1017.6
20260905084456 61 134 0.0 0.0 0.00 0.00 0.00 98 1017.5
20260905083952 61 158 0.0 0.0 0.00 0.00 0.00 98 1017.6
20260905083447 62 158 0.0 0.0 0.00 0.00 0.00 98 1017.7
20260905082943 62 157 0.0 0.0 0.00 0.00 0.00 98 1017.5
20260905082439 62 134 0.0 0.0 0.00 0.00 0.00 98 1017.7
20260905081934 62 131 0.0 0.0 0.00 0.00 0.00 98 1017.8
20260905081433 61 161 0.0 0.0 0.00 0.00 0.00 98 1017.7
20260905080932 61 161 0.0 0.0 0.00 0.00 0.00 98 1017.7
20260905080427 61 160 0.0 0.0 0.00 0.00 0.00 98 1017.6
20260905075926 61 160 0.0 0.0 0.00 0.00 0.00 98 1017.8
20260905075420 61 167 0.0 0.0 0.00 0.00 0.00 98 1017.8
20260905074919 61 175 0.0 0.0 0.00 0.00 0.00 97 1017.8
20260905074415 60 161 0.0 0.0 0.00 0.00 0.00 96 1017.6
20260905073911 61 161 0.0 0.0 0.00 0.00 0.00 96 1017.9
20260905073406 61 161 0.0 0.0 0.00 0.00 0.00 97 1017.7
20260905072902 61 161 0.0 0.0 0.00 0.00 0.00 96 1017.9
20260905072356 61 161 0.0 0.0 0.00 0.00 0.00 96 1017.9
20260905071852 62 167 0.0 0.0 0.00 0.00 0.00 96 1017.7
20260905071343 61 179 0.0 0.0 0.00 0.00 0.00 96 1017.7
20260905070842 61 164 0.0 0.0 0.00 0.00 0.00 94 1017.7
20260905070339 62 166 0.0 0.0 0.00 0.00 0.00 94 1017.6
20260905065838 62 215 0.0 0.0 0.00 0.00 0.00 94 1017.6
20260905065336 62 185 0.0 0.0 0.00 0.00 0.00 94 1017.8
20260905064832 62 159 0.0 0.0 0.00 0.00 0.00 94 1017.7
20260905064328 62 174 0.0 0.0 0.00 0.00 0.00 94 1017.6
20260905063826 62 167 0.0 0.0 0.00 0.00 0.00 94 1017.5
20260905063322 62 162 0.0 0.0 0.00 0.00 0.00 94 1017.6
20260905062819 61 161 0.0 0.0 0.00 0.00 0.00 94 1017.4
20260905062313 62 158 0.0 0.0 0.00 0.00 0.00 94 1017.4
20260905061808 61 171 0.0 0.0 0.00 0.00 0.00 93 1017.4
20260905061307 62 146 0.0 0.0 0.00 0.00 0.00 93 1017.4
20260905060802 62 156 0.0 0.0 0.00 0.00 0.00 93 1017.7
20260905060259 62 156 0.0 0.0 0.00 0.00 0.00 93 1017.5
20260905055757 62 156 0.0 0.0 0.00 0.00 0.00 92 1017.4
20260905055252 62 157 0.0 0.0 0.00 0.00 0.00 92 1017.5
20260905054747 63 168 0.0 0.0 0.00 0.00 0.00 92 1017.5
20260905054244 63 170 0.0 0.0 0.00 0.00 0.00 93 1017.3
20260905053743 63 168 0.0 0.0 0.00 0.00 0.00 94 1017.4
20260905053238 63 163 0.0 0.0 0.00 0.00 0.00 94 1017.6
20260905052738 63 168 0.0 0.0 0.00 0.00 0.00 95 1017.5
20260905052233 63 153 0.0 0.0 0.00 0.00 0.00 94 1017.8
20260905051732 63 158 0.0 0.0 0.00 0.00 0.00 94 1017.5
20260905051229 63 169 0.0 0.0 0.00 0.00 0.00 94 1017.5
20260905050725 64 158 0.0 0.0 0.00 0.00 0.00 94 1017.7
20260905050222 64 167 0.0 0.0 0.00 0.00 0.00 94 1017.8
20260905045721 64 169 0.0 0.0 0.00 0.00 0.00 94 1017.6
20260905045217 63 162 0.0 0.0 0.00 0.00 0.00 93 1017.8
20260905044712 64 159 0.0 0.0 0.00 0.00 0.00 94 1017.6
20260905044207 64 162 0.0 0.0 0.00 0.00 0.00 93 1017.4
20260905043706 64 164 0.0 0.0 0.00 0.00 0.00 94 1017.5
20260905043201 64 164 0.0 0.0 0.00 0.00 0.00 94 1017.6
20260905042701 64 171 0.0 0.0 0.00 0.00 0.00 94 1017.4
20260905042155 64 175 0.0 0.0 0.00 0.00 0.00 94 1017.4
20260905041651 64 168 0.0 0.0 0.00 0.00 0.00 94 1017.3
20260905041146 64 176 0.0 0.0 0.00 0.00 0.00 94 1017.2
20260905040641 64 158 0.0 0.0 0.00 0.00 0.00 93 1017.4
20260905040139 64 164 0.0 0.0 0.00 0.00 0.00 93 1017.5
20260905035634 64 157 0.0 0.0 0.00 0.00 0.00 92 1017.1
20260905035131 64 156 0.0 0.0 0.00 0.00 0.00 92 1017.1
20260905034626 65 163 0.0 0.0 0.00 0.00 0.00 91 1017.1
20260905034126 65 161 0.0 0.0 0.00 0.00 0.00 91 1017.1
20260905033620 65 167 0.0 0.0 0.00 0.00 0.00 90 1017.1
20260905033115 65 165 0.0 0.0 0.00 0.00 0.00 90 1016.9
20260905032609 66 159 0.0 0.0 0.00 0.00 0.00 90 1017.0
20260905032104 66 164 0.0 0.0 0.00 0.00 0.00 89 1016.9
20260905031600 66 154 0.0 0.0 0.00 0.00 0.00 88 1016.8
20260905031100 66 157 0.0 0.0 0.00 0.00 0.00 88 1016.8
20260905030555 66 157 0.0 0.0 0.00 0.00 0.00 88 1016.6
20260905030050 67 146 0.0 0.0 0.00 0.00 0.00 87 1016.7
20260905025545 67 146 0.0 0.0 0.00 0.00 0.00 87 1016.7
20260905025041 67 138 0.0 0.0 0.00 0.00 0.00 86 1016.8
20260905024536 67 133 0.0 0.0 0.00 0.00 0.00 86 1016.7
20260905024032 68 156 0.0 0.0 0.00 0.00 0.00 86 1016.6
20260905023527 68 158 0.0 0.9 0.00 0.00 0.00 85 1016.5
20260905023026 68 142 0.0 1.7 0.00 0.00 0.00 84 1016.8
20260905022521 69 329 1.7 2.6 0.00 0.00 0.00 84 1016.6
20260905022016 69 123 0.9 1.7 0.00 0.00 0.00 83 1016.5
20260905021515 69 90 0.9 0.9 0.00 0.00 0.00 82 1016.5
20260905021011 70 160 0.0 0.9 0.00 0.00 0.00 81 1016.6
20260905020505 70 129 0.9 0.9 0.00 0.00 0.00 80 1016.5
20260905020005 70 114 0.0 0.0 0.00 0.00 0.00 80 1016.6
20260905015503 70 213 0.9 1.7 0.00 0.00 0.00 79 1016.4
20260905015003 71 148 0.9 2.6 0.00 0.00 0.00 78 1016.6
20260905014458 71 199 1.7 2.6 0.00 0.00 0.00 75 1016.8
20260905013953 71 262 0.9 2.6 0.00 0.00 0.00 75 1016.8
20260905013450 71 187 1.7 6.1 0.00 0.00 0.00 74 1016.7
20260905012945 71 158 0.0 2.6 0.00 0.00 0.00 75 1016.7
20260905012440 72 91 0.9 0.9 0.00 0.00 0.00 75 1016.8
20260905011937 72 257 1.7 5.2 0.00 0.00 0.00 74 1016.8
20260905011433 73 263 2.6 5.2 0.00 0.00 0.00 73 1016.7
20260905010928 74 158 0.9 5.2 0.00 0.00 0.00 72 1016.9
20260905010423 74 220 2.6 2.6 0.00 0.00 0.00 72 1016.7
20260905005919 74 137 0.9 1.7 0.00 0.00 0.00 71 1016.7
20260905005415 74 278 1.7 6.1 0.00 0.00 0.00 71 1016.7
20260905004909 74 191 1.7 3.5 0.00 0.00 0.00 70 1016.7
20260905004409 74 34 1.7 2.6 0.00 0.00 0.00 70 1016.6
20260905003905 75 265 3.5 6.1 0.00 0.00 0.00 69 1016.6
20260905003401 75 286 3.5 5.2 0.00 0.00 0.00 68 1016.6
20260905002856 76 160 0.9 3.5 0.00 0.00 0.00 67 1016.4
20260905002355 77 237 1.7 5.2 0.00 0.00 0.00 66 1016.6
20260905001845 76 196 0.9 2.6 0.00 0.00 0.00 67 1016.7
20260905001344 77 260 1.7 2.6 0.00 0.00 0.00 66 1016.6
20260905000839 77 273 3.5 5.2 0.00 0.00 0.00 66 1016.7
20260905000334 76 168 0.9 2.6 0.00 0.00 0.00 66 1016.9
20260904235830 76 202 2.6 3.5 0.00 0.00 0.00 66 1016.7
20260904235325 78 283 4.3 7.0 0.00 0.00 0.00 64 1016.6
20260904234821 78 119 0.0 2.6 0.00 0.00 0.00 64 1016.5
20260904234321 78 204 5.2 7.8 0.00 0.00 0.00 64 1016.6
20260904233817 78 255 3.5 5.2 0.00 0.00 0.00 64 1016.7
20260904233312 78 157 0.0 1.7 0.00 0.00 0.00 65 1016.6
20260904232809 78 236 4.3 6.1 0.00 0.00 0.00 64 1016.8
20260904232307 78 247 6.1 7.8 0.00 0.00 0.00 64 1016.6
20260904231801 79 47 2.6 7.0 0.00 0.00 0.00 64 1016.6
20260904231255 79 172 1.7 5.2 0.00 0.00 0.00 64 1016.5
20260904230750 78 172 0.0 1.7 0.00 0.00 0.00 64 1016.5
20260904230244 79 281 0.9 6.1 0.00 0.00 0.00 63 1016.4
20260904225744 79 123 2.6 6.1 0.00 0.00 0.00 62 1016.8
20260904225238 80 250 2.6 5.2 0.00 0.00 0.00 62 1016.6
20260904224737 80 203 0.9 3.5 0.00 0.00 0.00 62 1016.6
20260904224233 81 132 1.7 3.5 0.00 0.00 0.00 61 1016.3
20260904223732 80 172 1.7 2.6 0.00 0.00 0.00 61 1016.6
20260904223227 80 275 0.9 6.1 0.00 0.00 0.00 62 1016.5
20260904222723 80 228 2.6 7.0 0.00 0.00 0.00 62 1016.4
20260904222218 80 242 0.9 2.6 0.00 0.00 0.00 62 1016.6
20260904221717 80 244 2.6 7.8 0.00 0.00 0.00 62 1016.6
20260904221213 80 21 2.6 7.0 0.00 0.00 0.00 62 1016.7
20260904220707 81 162 1.7 3.5 0.00 0.00 0.00 61 1016.5
20260904220157 82 236 2.6 3.5 0.00 0.00 0.00 60 1016.6
20260904215656 80 85 0.0 1.7 0.00 0.00 0.00 62 1016.8
20260904215153 80 149 1.7 2.6 0.00 0.00 0.00 62 1016.7
20260904214652 80 253 2.6 5.2 0.00 0.00 0.00 62 1016.7
20260904214148 80 38 2.6 5.2 0.00 0.00 0.00 63 1016.7
20260904213646 80 350 4.3 7.0 0.00 0.00 0.00 63 1016.7
20260904213143 80 85 0.9 2.6 0.00 0.00 0.00 63 1016.7
20260904212638 80 27 2.6 7.0 0.00 0.00 0.00 63 1016.8
20260904212133 80 145 1.7 5.2 0.00 0.00 0.00 63 1016.8
20260904211632 80 169 1.7 3.5 0.00 0.00 0.00 63 1016.8
20260904211128 80 231 1.7 7.8 0.00 0.00 0.00 62 1016.8
20260904210627 81 57 0.9 7.0 0.00 0.00 0.00 62 1016.5
20260904210123 80 222 1.7 5.2 0.00 0.00 0.00 63 1016.6
20260904205619 80 51 0.0 7.0 0.00 0.00 0.00 62 1016.5
20260904205115 81 288 3.5 6.1 0.00 0.00 0.00 61 1016.6
20260904204610 81 253 2.6 5.2 0.00 0.00 0.00 61 1016.6
20260904204107 82 269 3.5 5.2 0.00 0.00 0.00 60 1016.6
20260904203602 82 123 1.7 5.2 0.00 0.00 0.00 59 1016.7
20260904203059 81 83 1.7 6.1 0.00 0.00 0.00 59 1016.5
20260904202555 82 283 4.3 6.1 0.00 0.00 0.00 58 1016.6
20260904202051 82 336 1.7 7.8 0.00 0.00 0.00 58 1016.8
20260904201550 83 157 3.5 5.2 0.00 0.00 0.00 56 1016.7
20260904201046 83 220 1.7 3.5 0.00 0.00 0.00 54 1016.7
20260904200544 82 288 1.7 2.6 0.00 0.00 0.00 53 1016.7
20260904200039 82 208 3.5 5.2 0.00 0.00 0.00 54 1016.5
20260904195537 82 327 0.0 2.6 0.00 0.00 0.00 52 1017.0
20260904195032 81 105 1.7 2.6 0.00 0.00 0.00 54 1017.1
20260904194527 82 75 0.0 1.7 0.00 0.00 0.00 54 1016.7
20260904194021 83 247 2.6 2.6 0.00 0.00 0.00 52 1016.8
20260904193516 82 228 1.7 2.6 0.00 0.00 0.00 51 1016.9
20260904193013 81 126 0.9 2.6 0.00 0.00 0.00 55 1017.0
20260904192512 82 90 0.9 1.7 0.00 0.00 0.00 53 1017.2
20260904192009 82 149 3.5 5.2 0.00 0.00 0.00 53 1017.2
20260904191504 81 205 2.6 3.5 0.00 0.00 0.00 54 1017.3
20260904191001 79 196 1.7 7.8 0.00 0.00 0.00 56 1017.2
20260904190456 80 115 2.6 3.5 0.00 0.00 0.00 57 1017.5
20260904185951 81 176 1.7 2.6 0.00 0.00 0.00 54 1017.6
20260904185447 81 191 1.7 3.5 0.00 0.00 0.00 55 1017.6
20260904184942 80 160 0.9 1.7 0.00 0.00 0.00 56 1017.6
20260904184437 80 208 0.9 3.5 0.00 0.00 0.00 57 1017.6
20260904183932 80 167 0.9 1.7 0.00 0.00 0.00 57 1017.6
20260904183427 79 129 0.0 0.9 0.00 0.00 0.00 58 1017.6
20260904182923 78 317 0.9 1.7 0.00 0.00 0.00 58 1017.8
20260904182419 79 178 2.6 6.1 0.00 0.00 0.00 58 1018.0
20260904181913 78 140 0.9 5.2 0.00 0.00 0.00 58 1017.9
20260904181409 78 147 0.9 3.5 0.00 0.00 0.00 61 1018.0
20260904180903 77 114 0.0 0.9 0.00 0.00 0.00 63 1017.9
20260904180358 76 93 0.9 2.6 0.00 0.00 0.00 63 1018.1
20260904175857 77 99 1.7 1.7 0.00 0.00 0.00 62 1018.0
20260904175357 76 112 0.0 0.9 0.00 0.00 0.00 64 1017.9
20260904174856 76 68 0.0 1.7 0.00 0.00 0.00 65 1018.2
20260904174353 75 88 0.0 1.7 0.00 0.00 0.00 64 1018.0
20260904173848 76 105 1.7 6.1 0.00 0.00 0.00 64 1018.0
20260904173343 75 183 3.5 3.5 0.00 0.00 0.00 64 1018.0
20260904172839 75 196 0.0 0.9 0.00 0.00 0.00 66 1017.8
20260904172338 75 92 0.0 3.5 0.00 0.00 0.00 67 1018.0
20260904171834 75 113 0.0 0.9 0.00 0.00 0.00 67 1018.0
20260904171329 75 134 0.9 1.7 0.00 0.00 0.00 66 1017.8
20260904170825 74 118 0.0 0.9 0.00 0.00 0.00 68 1017.7
20260904170320 73 107 2.6 2.6 0.00 0.00 0.00 68 1017.8
20260904165820 73 146 0.9 2.6 0.00 0.00 0.00 69 1017.7
20260904165314 72 172 0.9 0.9 0.00 0.00 0.00 70 1017.7
20260904164809 71 138 0.9 5.2 0.00 0.00 0.00 72 1017.6
20260904164304 72 78 4.3 5.2 0.00 0.00 0.00 72 1017.7
20260904163800 71 113 0.9 3.5 0.00 0.00 0.00 73 1017.5
20260904163254 71 88 0.0 1.7 0.00 0.00 0.00 74 1017.7
20260904162754 71 101 0.9 3.5 0.00 0.00 0.00 74 1017.6
20260904162249 71 84 2.6 5.2 0.00 0.00 0.00 73 1017.5
20260904161745 70 88 0.0 0.9 0.00 0.00 0.00 74 1017.5
20260904161244 69 87 0.9 2.6 0.00 0.00 0.00 77 1017.7
20260904160740 70 60 0.9 2.6 0.00 0.00 0.00 76 1017.6
20260904160236 70 133 0.9 1.7 0.00 0.00 0.00 76 1017.3
20260904155735 70 141 0.9 0.9 0.00 0.00 0.00 77 1017.1
20260904155234 69 133 0.9 2.6 0.00 0.00 0.00 78 1017.3
20260904154732 69 79 2.6 2.6 0.00 0.00 0.00 78 1017.7
20260904154227 68 98 0.9 3.5 0.00 0.00 0.00 80 1017.4
20260904153723 69 93 5.2 6.1 0.00 0.00 0.00 79 1017.3
20260904153219 68 113 1.7 2.6 0.00 0.00 0.00 79 1017.6
20260904152716 68 142 0.9 5.2 0.00 0.00 0.00 81 1017.3
20260904152216 67 139 1.7 1.7 0.00 0.00 0.00 82 1017.3
20260904151710 67 104 2.6 3.5 0.00 0.00 0.00 82 1017.3
20260904151209 67 170 1.7 3.5 0.00 0.00 0.00 83 1017.1
20260904150705 66 114 1.7 3.5 0.00 0.00 0.00 84 1017.5
20260904150201 66 128 1.7 1.7 0.00 0.00 0.00 85 1017.1
20260904145659 65 124 0.9 1.7 0.00 0.00 0.00 86 1017.5
20260904145154 64 113 0.9 3.5 0.00 0.00 0.00 87 1017.3
20260904144650 64 91 2.6 3.5 0.00 0.00 0.00 86 1017.2
20260904144145 64 143 0.9 1.7 0.00 0.00 0.00 87 1017.1
20260904143636 64 95 0.9 1.7 0.00 0.00 0.00 88 1017.2
20260904143132 63 111 0.0 1.7 0.00 0.00 0.00 89 1017.2
20260904142629 62 95 0.0 1.7 0.00 0.00 0.00 90 1017.1
20260904142124 62 104 0.0 0.0 0.00 0.00 0.00 91 1017.1
20260904141618 61 143 0.0 0.0 0.00 0.00 0.00 93 1016.9
20260904141113 61 143 0.0 0.0 0.00 0.00 0.00 94 1016.8
20260904140610 60 143 0.0 0.0 0.00 0.00 0.00 94 1016.7
20260904140104 60 126 0.0 0.0 0.00 0.00 0.00 95 1016.7
20260904135603 60 156 0.0 0.0 0.00 0.00 0.00 95 1016.8
20260904135059 59 153 0.0 0.0 0.00 0.00 0.00 95 1016.8
20260904134554 59 153 0.0 0.9 0.00 0.00 0.00 95 1016.8
20260904134043 59 148 0.0 0.9 0.00 0.00 0.00 95 1016.6
20260904133542 59 130 0.9 1.7 0.00 0.00 0.00 95 1016.5
20260904133033 59 155 0.9 0.9 0.00 0.00 0.00 95 1016.5
20260904132527 59 170 0.0 0.0 0.00 0.00 0.00 95 1016.4
20260904132021 59 146 0.0 0.0 0.00 0.00 0.00 95 1016.6
20260904131516 59 123 0.0 1.7 0.00 0.00 0.00 95 1016.4
20260904131012 59 110 0.0 0.9 0.00 0.00 0.00 95 1016.6
20260904130511 59 133 0.0 0.9 0.00 0.00 0.00 95 1016.2
20260904130006 59 146 0.0 0.9 0.00 0.00 0.00 95 1016.3
20260904125502 59 145 0.0 0.9 0.00 0.00 0.00 95 1016.5
20260904124956 59 141 0.0 0.0 0.00 0.00 0.00 95 1016.1
20260904124452 59 159 0.9 1.7 0.00 0.00 0.00 95 1016.6
20260904123948 59 142 0.0 0.9 0.00 0.00 0.00 95 1016.6
20260904123442 59 152 0.0 0.0 0.00 0.00 0.00 94 1016.3
20260904122938 59 137 0.0 0.0 0.00 0.00 0.00 94 1016.2
20260904122437 59 143 0.0 0.0 0.00 0.00 0.00 94 1016.4
20260904121932 59 138 0.0 0.0 0.00 0.00 0.00 94 1016.2
20260904121428 59 148 0.0 0.0 0.00 0.00 0.00 94 1016.2
20260904120925 59 149 0.0 0.0 0.00 0.00 0.00 94 1016.1
20260904120420 59 149 0.0 0.0 0.00 0.00 0.00 94 1016.3
20260904115915 58 151 0.0 0.0 0.00 0.00 0.00 94 1016.3
20260904115410 58 153 0.0 0.0 0.00 0.00 0.00 94 1016.2
20260904114904 58 151 0.0 0.0 0.00 0.00 0.00 95 1016.1
20260904114359 58 132 0.0 0.0 0.00 0.00 0.00 95 1016.3
20260904113855 57 158 0.0 0.0 0.00 0.00 0.00 95 1016.3
20260904113354 57 143 0.0 0.0 0.00 0.00 0.00 95 1016.2
20260904112854 57 143 0.0 0.0 0.00 0.00 0.00 95 1016.1
20260904112349 57 143 0.0 0.0 0.00 0.00 0.00 95 1016.1
20260904111845 57 143 0.0 0.0 0.00 0.00 0.00 95 1016.2
20260904111341 57 143 0.0 0.0 0.00 0.00 0.00 95 1016.1
20260904110837 57 149 0.0 0.0 0.00 0.00 0.00 96 1016.2
20260904110335 57 149 0.0 0.0 0.00 0.00 0.00 95 1016.3
20260904105830 57 151 0.0 0.0 0.00 0.00 0.00 95 1016.1
20260904105325 57 151 0.0 0.0 0.00 0.00 0.00 95 1016.2
20260904104820 57 151 0.0 0.0 0.00 0.00 0.00 95 1016.3
20260904104315 57 151 0.0 0.0 0.00 0.00 0.00 95 1016.2
20260904103812 57 151 0.0 0.0 0.00 0.00 0.00 95 1016.2
20260904103312 57 151 0.0 0.0 0.00 0.00 0.00 95 1015.8
20260904102808 57 151 0.0 0.0 0.00 0.00 0.00 95 1016.1
20260904102306 57 151 0.0 0.0 0.00 0.00 0.00 95 1016.2
20260904101759 57 147 0.0 0.0 0.00 0.00 0.00 95 1016.1
20260904101255 57 147 0.0 0.0 0.00 0.00 0.00 95 1015.7
20260904100751 57 147 0.0 0.0 0.00 0.00 0.00 95 1016.0
20260904100246 57 147 0.0 0.0 0.00 0.00 0.00 95 1016.1
20260904095746 57 134 0.0 0.0 0.00 0.00 0.00 95 1015.9
20260904095241 57 152 0.0 0.0 0.00 0.00 0.00 94 1016.1
20260904094736 58 152 0.0 0.0 0.00 0.00 0.00 94 1016.2
20260904094231 58 152 0.0 0.0 0.00 0.00 0.00 94 1016.1
20260904093728 58 151 0.0 0.0 0.00 0.00 0.00 94 1016.1
20260904093227 58 151 0.0 0.0 0.00 0.00 0.00 94 1016.0
20260904092723 58 151 0.0 0.0 0.00 0.00 0.00 94 1016.1
20260904092219 58 151 0.0 0.0 0.00 0.00 0.00 93 1016.1